Weather History for Kingman, AZ

Change the Weather History Date:

Tuesday, January 8, 2013

  Actual Average Record
Temperature  
Mean Temperature 44 °F 43 °F  
Max Temperature 57 °F 55 °F 76 °F (2002)
Min Temperature 30 °F 31 °F 12 °F (1930)
Degree Days  
Heating Degree Days 21 22  
Month to date heating degree days 222 177  
Since 1 July heating degree days 1303 1426  
Cooling Degree Days 0 0  
Month to date cooling degree days 0 0  
Year to date cooling degree days 0 0  
Moisture  
Dew Point 14 °F    
Average Humidity 35    
Maximum Humidity 52    
Minimum Humidity 18    
Precipitation  
Precipitation 0.00 in 0.03 in 1.22 in (1993)
Month to date precipitation 0.00 0.22  
Year to date precipitation 0.00 0.22  
Sea Level Pressure  
Sea Level Pressure 30.07 in    
Wind  
Wind Speed 9 mph (ENE)    
Max Wind Speed 15 mph    
Max Gust Speed 18 mph    
Visibility 9 miles    
Events      
T = Trace of Precipitation, MM = Missing Value Source: NWS Daily Summary

Daily Weather History Graph

Daily Weather History Graph

Search for Another Location

Airport:

Trip Planner

Search our weather history database for the weather conditions in past years. The results will help you decide how hot, cold, wet, or windy it might be!

Date:

Astronomy

Jan. 08, 2013 Rise Set
Actual Time 7:44 AM MST 5:40 PM MST
Civil Twilight 7:17 AM MST 6:08 PM MST
Nautical Twilight 6:45 AM MST 6:39 PM MST
Astronomical Twilight 6:14 AM MST 7:10 PM MST
Moon 4:23 AM MST (1/8) 2:46 PM MST (1/8)
Length of Visible Light 10h 51m
Length of Day
9h 55m
Waning Crescent, 13% of the Moon is Illuminated
Jan 8
Waning Crescent
Jan 11
New
Jan 18
First Quarter
Jan 26
Full
Feb 3
Last Quarter

Hourly Weather History & Observations

Time (MST) Temp. Windchill Dew Point Humidity Pressure Visibility Wind Dir Wind Speed Gust Speed Precip Events Conditions
12:51 AM 30.9 °F 23.5 °F 10.9 °F 43% 29.97 in 10.0 mi East 8.1 mph - N/A   Clear
1:51 AM 30.9 °F 22.8 °F 12.0 °F 46% 29.96 in 10.0 mi East 9.2 mph - N/A   Clear
2:51 AM 30.0 °F 23.2 °F 12.0 °F 47% 29.97 in 10.0 mi East 6.9 mph - N/A   Clear
3:51 AM 34.0 °F 25.5 °F 12.0 °F 40% 29.96 in 10.0 mi East 11.5 mph - N/A   Clear
4:51 AM 35.1 °F 27.9 °F 12.0 °F 39% 29.97 in 10.0 mi East 9.2 mph - N/A   Clear
5:51 AM 34.0 °F 26.0 °F 12.9 °F 42% 30.00 in 10.0 mi East 10.4 mph - N/A   Clear
6:51 AM 33.1 °F 24.9 °F 12.0 °F 42% 30.02 in 10.0 mi East 10.4 mph - N/A   Clear
7:51 AM 33.1 °F 24.9 °F 12.0 °F 42% 30.06 in 10.0 mi East 10.4 mph - N/A   Clear
8:51 AM 39.2 °F 33.0 °F 12.2 °F 33% 30.12 in 10.0 mi East 9.2 mph - N/A   Clear
9:51 AM 46.0 °F 42.5 °F 12.0 °F 25% 30.09 in 10.0 mi NE 6.9 mph - N/A   Clear
10:11 AM 46.4 °F 42.4 °F 12.2 °F 25% 30.16 in 2.0 mi NNE 8.1 mph - N/A   Haze
10:14 AM 46.4 °F 41.9 °F 12.2 °F 25% 30.16 in 1.5 mi North 9.2 mph - N/A   Haze
10:21 AM 48.2 °F - 12.2 °F 24% 30.17 in 2.5 mi North 9.2 mph - N/A   Haze
10:24 AM 48.2 °F - 12.2 °F 24% 30.17 in 4.0 mi NNE 10.4 mph - N/A   Haze
10:51 AM 48.0 °F - 10.9 °F 22% 30.10 in 10.0 mi North 9.2 mph - N/A   Clear
11:51 AM 52.0 °F - 10.0 °F 19% 30.07 in 10.0 mi North 10.4 mph - N/A   Clear
12:51 PM 54.0 °F - 12.0 °F 19% 30.05 in 10.0 mi North 10.4 mph - N/A   Clear
1:51 PM 55.9 °F - 12.9 °F 18% 30.04 in 10.0 mi NNE 9.2 mph 16.1 mph N/A   Clear
2:51 PM 55.9 °F - 14.0 °F 19% 30.04 in 10.0 mi NE 11.5 mph - N/A   Clear
3:51 PM 57.0 °F - 16.0 °F 20% 30.03 in 10.0 mi NNE 8.1 mph - N/A   Clear
4:51 PM 55.9 °F - 18.0 °F 23% 30.04 in 10.0 mi NNE 12.7 mph - N/A   Clear
5:51 PM 48.9 °F - 18.0 °F 29% 30.07 in 10.0 mi NE 9.2 mph - N/A   Clear
6:51 PM 46.9 °F - 19.0 °F 33% 30.10 in 10.0 mi East 11.5 mph - N/A   Clear
7:51 PM 45.0 °F 39.7 °F 19.9 °F 37% 30.13 in 10.0 mi ESE 10.4 mph - N/A   Clear
8:51 PM 43.0 °F 37.7 °F 19.9 °F 40% 30.13 in 10.0 mi East 9.2 mph - N/A   Clear
9:51 PM 39.0 °F 34.0 °F 19.9 °F 46% 30.14 in 10.0 mi ENE 6.9 mph - N/A   Clear
10:51 PM 36.0 °F 29.6 °F 19.9 °F 52% 30.16 in 10.0 mi East 8.1 mph - N/A   Clear
11:51 PM 37.9 °F 32.7 °F 21.0 °F 51% 30.15 in 10.0 mi East 6.9 mph - N/A   Clear